{"data":{"norad_id":69946,"epoch":"2026-09-19T22:21:05.698944Z","epoch_age_seconds":66905,"freshness":"FRESH","line1":"1 69946U 26157D   26262.93131596  .00021250  00000+0  63846-3 0  9999","line2":"2 69946  53.1601 336.5188 0000917  85.3487 274.7621 15.34390832 11287","mean_motion":15.34390832,"eccentricity":9.17e-5,"inclination_deg":53.1601,"raan_deg":336.5188,"arg_perigee_deg":85.3487,"mean_anomaly_deg":274.7621,"bstar":0.00063846,"rev_number":1128,"period_min":93.848318822593,"perigee_km":462.10318202206,"apogee_km":463.35779711965,"semimajor_km":6840.8674895709,"source":"CELESTRAK","updated_at":"2026-09-20T09:00:44.299315Z"}}